Previsão horária em Cenon

Hoje, 27 Julho, Terça-feira

Tempo Temperatura Precipitação Vento Pressão Humidade
00:00 +16°C° 0 mm 0 m/s 759 mmHg 89%
01:00 +16°C° 0 mm 0 m/s 759 mmHg 90%
02:00 +18°C° 0 mm 1 m/s 759 mmHg 90%
03:00 +18°C° 0 mm 1 m/s 758 mmHg 91%
04:00 +18°C° 0 mm 1 m/s 758 mmHg 90%
05:00 +18°C° 0 mm 1 m/s 758 mmHg 89%
06:00 +18°C° 0 mm 1 m/s 758 mmHg 89%
07:00 +20°C° 0 mm 1 m/s 758 mmHg 81%
08:00 +20°C° 0 mm 2 m/s 758 mmHg 74%
09:00 +23°C° 0 mm 2 m/s 758 mmHg 67%
10:00 +23°C° 0 mm 2 m/s 758 mmHg 66%
11:00 +23°C° 0 mm 2 m/s 758 mmHg 65%
12:00 +23°C° 0 mm 2 m/s 758 mmHg 64%
13:00 +24°C° 0 mm 2 m/s 758 mmHg 59%
14:00 +25°C° 0 mm 3 m/s 758 mmHg 54%
15:00 +26°C° 0 mm 4 m/s 758 mmHg 49%
16:00 +25°C° 0 mm 3 m/s 758 mmHg 52%
17:00 +25°C° 0 mm 3 m/s 758 mmHg 55%
18:00 +24°C° 0 mm 3 m/s 758 mmHg 58%
19:00 +21°C° 0 mm 3 m/s 758 mmHg 69%
20:00 +20°C° 0 mm 2 m/s 759 mmHg 79%
21:00 +18°C° 0 mm 2 m/s 759 mmHg 89%
22:00 +18°C° 0 mm 2 m/s 759 mmHg 90%
23:00 +18°C° 0 mm 1 m/s 759 mmHg 92%

Amanhã, 28 Julho, Quarta-feira

Tempo Temperatura Precipitação Vento Pressão Humidade
00:00 +18°C° 0 mm 1 m/s 759 mmHg 94%
01:00 +18°C° 0 mm 1 m/s 759 mmHg 94%
02:00 +18°C° 0 mm 1 m/s 759 mmHg 94%
03:00 +16°C° 0 mm 1 m/s 759 mmHg 94%
04:00 +16°C° 0 mm 0 m/s 759 mmHg 92%
05:00 +16°C° 0 mm 0 m/s 759 mmHg 91%
06:00 +16°C° 0 mm 0 m/s 759 mmHg 89%
07:00 +18°C° 0 mm 0 m/s 759 mmHg 79%
08:00 +20°C° 0 mm 0 m/s 759 mmHg 68%
09:00 +24°C° 0 mm 1 m/s 759 mmHg 58%
10:00 +25°C° 0 mm 1 m/s 759 mmHg 53%
11:00 +27°C° 0 mm 1 m/s 759 mmHg 48%
12:00 +28°C° 0 mm 2 m/s 759 mmHg 43%
13:00 +28°C° 0 mm 3 m/s 759 mmHg 43%
14:00 +28°C° 0 mm 3 m/s 759 mmHg 43%
15:00 +28°C° 0 mm 4 m/s 758 mmHg 43%
16:00 +27°C° 0 mm 4 m/s 759 mmHg 46%
17:00 +25°C° 0 mm 4 m/s 759 mmHg 50%
18:00 +23°C° 0 mm 4 m/s 759 mmHg 54%
19:00 +21°C° 0 mm 3 m/s 759 mmHg 63%
20:00 +19°C° 0 mm 3 m/s 759 mmHg 72%
21:00 +18°C° 0 mm 2 m/s 760 mmHg 81%
22:00 +17°C° 0 mm 2 m/s 760 mmHg 82%
23:00 +18°C° 0 mm 1 m/s 760 mmHg 84%

Depois de amanhã, 29 Julho, Quinta-feira

Tempo Temperatura Precipitação Vento Pressão Humidade
00:00 +18°C° 0 mm 1 m/s 760 mmHg 86%
01:00 +18°C° 0 mm 1 m/s 760 mmHg 86%
02:00 +16°C° 0 mm 1 m/s 759 mmHg 87%
03:00 +16°C° 0 mm 1 m/s 759 mmHg 88%
04:00 +18°C° 0 mm 1 m/s 759 mmHg 87%
05:00 +18°C° 0 mm 1 m/s 759 mmHg 87%
06:00 +18°C° 0 mm 1 m/s 759 mmHg 86%
07:00 +20°C° 0 mm 1 m/s 759 mmHg 77%
08:00 +22°C° 0 mm 1 m/s 759 mmHg 69%
09:00 +23°C° 0 mm 1 m/s 759 mmHg 60%
10:00 +25°C° 0 mm 1 m/s 759 mmHg 56%
11:00 +26°C° 0 mm 1 m/s 759 mmHg 52%
12:00 +27°C° 0 mm 1 m/s 758 mmHg 48%
13:00 +28°C° 0 mm 2 m/s 758 mmHg 47%
14:00 +28°C° 0 mm 2 m/s 757 mmHg 46%
15:00 +28°C° 0 mm 3 m/s 757 mmHg 46%
16:00 +27°C° 0 mm 3 m/s 757 mmHg 48%
17:00 +26°C° 0 mm 4 m/s 757 mmHg 51%
18:00 +25°C° 0 mm 4 m/s 757 mmHg 53%
19:00 +22°C° 0 mm 4 m/s 757 mmHg 59%
20:00 +20°C° 0 mm 3 m/s 757 mmHg 66%
21:00 +18°C° 0 mm 3 m/s 757 mmHg 72%
22:00 +17°C° 0 mm 2 m/s 757 mmHg 75%
23:00 +17°C° 0 mm 2 m/s 757 mmHg 78%

30 Julho, Sexta-feira

Tempo Temperatura Precipitação Vento Pressão Humidade
00:00 +16°C° 0 mm 2 m/s 757 mmHg 81%
01:00 +16°C° 0 mm 1 m/s 757 mmHg 83%
02:00 +16°C° 0 mm 1 m/s 757 mmHg 84%
03:00 +16°C° 0 mm 1 m/s 757 mmHg 86%
04:00 +16°C° 0 mm 1 m/s 757 mmHg 84%
05:00 +18°C° 0 mm 1 m/s 757 mmHg 82%
06:00 +19°C° 0 mm 1 m/s 757 mmHg 80%
07:00 +20°C° 0 mm 2 m/s 758 mmHg 71%
08:00 +22°C° 0 mm 3 m/s 758 mmHg 63%
09:00 +24°C° 0 mm 3 m/s 758 mmHg 54%
10:00 +25°C° 0 mm 4 m/s 758 mmHg 54%
11:00 +25°C° 0 mm 4 m/s 758 mmHg 54%
12:00 +26°C° 0 mm 5 m/s 758 mmHg 55%
13:00 +26°C° 0.1 mm 5 m/s 758 mmHg 57%
14:00 +25°C° 0.1 mm 5 m/s 758 mmHg 59%
15:00 +24°C° 0.1 mm 6 m/s 758 mmHg 61%
16:00 +23°C° 0 mm 6 m/s 758 mmHg 63%
17:00 +23°C° 0 mm 5 m/s 758 mmHg 66%
18:00 +22°C° 0 mm 5 m/s 758 mmHg 68%
19:00 +20°C° 0 mm 4 m/s 759 mmHg 71%
20:00 +19°C° 0 mm 4 m/s 759 mmHg 74%
21:00 +17°C° 0 mm 3 m/s 760 mmHg 77%
22:00 +17°C° 0 mm 2 m/s 760 mmHg 78%
23:00 +16°C° 0 mm 2 m/s 760 mmHg 79%

31 Julho, Sábado

Tempo Temperatura Precipitação Vento Pressão Humidade
00:00 +15°C° 0 mm 2 m/s 760 mmHg 81%
01:00 +15°C° 0 mm 2 m/s 760 mmHg 82%
02:00 +15°C° 0 mm 1 m/s 760 mmHg 83%
03:00 +14°C° 0 mm 1 m/s 760 mmHg 85%
04:00 +15°C° 0 mm 1 m/s 760 mmHg 82%
05:00 +16°C° 0 mm 1 m/s 760 mmHg 80%
06:00 +16°C° 0 mm 1 m/s 760 mmHg 78%
07:00 +19°C° 0.1 mm 1 m/s 760 mmHg 74%
08:00 +20°C° 0.1 mm 1 m/s 760 mmHg 70%
09:00 +21°C° 0.1 mm 1 m/s 760 mmHg 66%
10:00 +22°C° 0.2 mm 1 m/s 760 mmHg 64%
11:00 +21°C° 0.2 mm 2 m/s 760 mmHg 63%
12:00 +23°C° 0.2 mm 2 m/s 760 mmHg 61%
13:00 +22°C° 0.1 mm 3 m/s 760 mmHg 57%
14:00 +24°C° 0.1 mm 3 m/s 760 mmHg 53%
15:00 +25°C° 0.1 mm 4 m/s 760 mmHg 48%
16:00 +23°C° 0 mm 4 m/s 760 mmHg 50%
17:00 +22°C° 0 mm 4 m/s 760 mmHg 52%
18:00 +21°C° 0 mm 4 m/s 760 mmHg 54%
19:00 +20°C° 0 mm 3 m/s 760 mmHg 64%
20:00 +18°C° 0 mm 3 m/s 761 mmHg 73%
21:00 +16°C° 0 mm 2 m/s 761 mmHg 82%
22:00 +16°C° 0 mm 2 m/s 761 mmHg 84%
23:00 +15°C° 0 mm 1 m/s 761 mmHg 87%

1 Agosto, Domingo

Tempo Temperatura Precipitação Vento Pressão Humidade
00:00 +15°C° 0 mm 1 m/s 761 mmHg 89%
01:00 +15°C° 0 mm 1 m/s 761 mmHg 89%
02:00 +15°C° 0 mm 1 m/s 761 mmHg 89%
03:00 +16°C° 0 mm 1 m/s 760 mmHg 88%
04:00 +16°C° 0 mm 1 m/s 760 mmHg 87%
05:00 +18°C° 0 mm 1 m/s 760 mmHg 86%
06:00 +18°C° 0 mm 1 m/s 761 mmHg 85%
07:00 +19°C° 0 mm 2 m/s 760 mmHg 76%
08:00 +20°C° 0 mm 2 m/s 760 mmHg 67%
09:00 +22°C° 0 mm 3 m/s 760 mmHg 58%
10:00 +22°C° 0.1 mm 3 m/s 760 mmHg 58%
11:00 +23°C° 0.1 mm 4 m/s 760 mmHg 57%
12:00 +23°C° 0.1 mm 4 m/s 760 mmHg 57%
13:00 +23°C° 0.1 mm 4 m/s 760 mmHg 57%
14:00 +25°C° 0.1 mm 4 m/s 760 mmHg 56%
15:00 +25°C° 0.1 mm 4 m/s 760 mmHg 56%
16:00 +23°C° 0 mm 4 m/s 760 mmHg 58%
17:00 +22°C° 0 mm 4 m/s 760 mmHg 61%
18:00 +22°C° 0 mm 4 m/s 760 mmHg 64%
19:00 +20°C° 0 mm 3 m/s 760 mmHg 72%
20:00 +19°C° 0 mm 2 m/s 761 mmHg 79%
21:00 +17°C° 0 mm 2 m/s 761 mmHg 87%
22:00 +18°C° 0 mm 1 m/s 761 mmHg 89%
23:00 +16°C° 0 mm 1 m/s 761 mmHg 91%
Mostrar mais

Necessitamos do seu Consentimento

A Meteoprog e os seus Fornecedores de Serviços podem armazenar e aceder a dados pessoais como cookies, identificadores do dispositivo ou outras tecnologias semelhantes existentes no seu dispositivo e processar estes dados para personalizar conteúdos e anúncios, assim como funcionalidades nas redes sociais e análise de tráfego.

  • Armazenar e/ou aceder a informações no seu dispositivo

    Os cookies, identificadores do dispositivo ou outras informações podem ser armazenados ou acedidos no seu dispositivo, para os fins acima indicados.

  • Anúncios e conteúdos personalizados, medição de anúncios e conteúdos, dados sobre o público-alvo e desenvolvimento de produtos

    Os anúncios e os conteúdos podem ser personalizados com base num perfil. Podem ser adicionados dados adicionais para uma maior personalização dos anúncios e dos conteúdos. A eficácia dos anúncios e dos conteúdos pode ser medida. Podem ser obtidas informações sobre o público que visualizou os anúncios e os conteúdos. Estes dados podem ser usados para desenvolver ou melhorar sistemas, softwares ou a experiência do utilizador.

Ao clicar em "Eu concordo”, permitirá o uso de cookies, identificadores do dispositivo e web beacons mencionados ou outras tecnologias semelhantes. As configurações do navegador do seu dispositivo podem ser alteradas.

Para certos fins, podem ser invocados interesses legítimos ao invés de consentimento. Pode ler mais informação sobre este assunto na nossa Política de Privacidade e Cookies.